Nuiqsut, AK

8:33 PM AKDT on March 22, 2017 (GMT -0800)
Nuiqsut

Weather History for PAQT - May, 2014

Change the Weather History Date:

Tuesday, May 13, 2014

  Actual Average (PAKU) Record (PAKU)
Temperature  
Mean Temperature 32 °F -  
Max Temperature 35 °F 23 °F 44 °F (2016)
Min Temperature 28 °F 13 °F -8 °F (1985)
Degree Days  
Heating Degree Days 33    
Moisture  
Dew Point 32 °F    
Average Humidity 98    
Maximum Humidity 100    
Minimum Humidity 92    
Precipitation  
Precipitation 0.04 in - - ()
Sea Level Pressure  
Sea Level Pressure 30.20 in    
Wind  
Wind Speed 14 mph (West)    
Max Wind Speed 25 mph    
Max Gust Speed 32 mph    
Visibility 5 miles    
Events Fog , Rain , Snow    
Averages and records for this station are not official NWS values.
T = Trace of Precipitation, MM = Missing Value Source: NWS Daily Summary

Daily Weather History Graph

Daily Weather History Graph

Search for Another Location

Airport or City:

Trip Planner

Search our weather history database for the weather conditions in past years. The results will help you decide how hot, cold, wet, or windy it might be!

Date:

Astronomy

May. 13, 2014 Rise Set
Actual Time 2:55 AM AKDT 1:18 AM AKDT
Civil Twilight Sun does not rise Sun does not rise
Nautical Twilight Sun does not rise Sun does not rise
Astronomical Twilight Sun does not rise Sun does not rise
Moon 10:57 PM AKDT (5/13) 4:14 AM AKDT (5/13)
Length of Visible Light 24h 00m
Length of Day
22h 22m
Waxing Gibbous, 99% of the Moon is Illuminated
May 13
Waxing Gibbous
May 14
Full
May 21
Last Quarter
May 28
New
Jun 5
First Quarter

Hourly Weather History & Observations

Time (AKDT) Temp. Windchill Dew Point Humidity Pressure Visibility Wind Dir Wind Speed Gust Speed Precip Events Conditions
12:53 AM 32.0 °F - 32.0 °F 100% 30.05 in 10.0 mi Calm Calm - N/A   Clear
1:53 AM 33.1 °F 27.7 °F 32.0 °F 96% 30.04 in 10.0 mi West 5.8 mph - N/A   Mostly Cloudy
2:53 AM 34.0 °F 27.2 °F 33.1 °F 96% 30.02 in 10.0 mi West 8.1 mph - N/A   Overcast
3:30 AM 34.0 °F 26.6 °F 33.1 °F 96% 30.02 in 10.0 mi West 9.2 mph - 0.00 in Rain Light Rain
3:53 AM 33.1 °F 23.9 °F 32.0 °F 96% 30.03 in 9.0 mi West 12.7 mph - 0.01 in Rain Light Rain
5:14 AM 33.1 °F 23.4 °F 32.0 °F 96% 30.03 in 7.0 mi West 13.8 mph - 0.01 in Rain Light Rain
5:37 AM 32.0 °F 22.5 °F 32.0 °F 100% 30.03 in 5.0 mi WSW 12.7 mph - 0.01 in   Overcast
5:53 AM 32.0 °F 22.1 °F 32.0 °F 100% 30.04 in 8.0 mi WSW 13.8 mph - 0.02 in   Overcast
6:53 AM 32.0 °F 20.8 °F 32.0 °F 100% 30.04 in 8.0 mi WSW 17.3 mph - 0.00 in   Overcast
7:21 AM 32.0 °F 21.6 °F 32.0 °F 100% 30.05 in 3.0 mi WSW 15.0 mph - N/A Snow Light Snow
8:33 AM 32.0 °F 21.6 °F 32.0 °F 100% 30.07 in 10.0 mi West 15.0 mph - 0.00 in   Overcast
8:53 AM 32.0 °F 21.2 °F 32.0 °F 100% 30.07 in 2.5 mi West 16.1 mph - 0.00 in Snow Light Snow
9:04 AM 33.1 °F 22.6 °F 33.1 °F 100% 30.07 in 4.0 mi West 16.1 mph - 0.00 in Snow Light Snow
9:22 AM 33.1 °F 22.6 °F 32.0 °F 96% 30.08 in 10.0 mi West 16.1 mph - 0.00 in Rain Light Rain
9:30 AM 33.1 °F 21.5 °F 32.0 °F 96% 30.09 in 10.0 mi West 19.6 mph - 0.00 in   Overcast
9:53 AM 32.0 °F 21.2 °F 32.0 °F 100% 30.10 in 3.0 mi WSW 16.1 mph - 0.00 in Snow Light Snow
9:59 AM 32.0 °F 21.6 °F 32.0 °F 100% 30.09 in 3.0 mi West 15.0 mph - 0.00 in Snow Light Snow
10:09 AM 33.1 °F 22.6 °F 32.0 °F 96% 30.09 in 9.0 mi West 16.1 mph - 0.00 in   Overcast
10:41 AM 33.1 °F 22.2 °F 32.0 °F 96% 30.11 in 2.0 mi WSW 17.3 mph - 0.00 in Snow Light Snow
10:53 AM 33.1 °F 21.2 °F 32.0 °F 96% 30.11 in 3.0 mi WSW 20.7 mph - 0.01 in Snow Light Snow
11:34 AM 33.1 °F 21.2 °F 30.9 °F 92% 30.13 in 10.0 mi West 20.7 mph - 0.00 in Rain Light Rain
11:42 AM 32.0 °F 20.1 °F 30.9 °F 96% 30.13 in 3.0 mi West 19.6 mph - 0.00 in Snow Light Snow
11:46 AM 32.0 °F 20.5 °F 32.0 °F 100% 30.13 in 1.8 mi West 18.4 mph - 0.00 in Snow Light Snow
11:53 AM 32.0 °F 20.5 °F 30.9 °F 96% 30.14 in 0.8 mi West 18.4 mph - 0.00 in Snow Light Snow
12:02 PM 32.0 °F 21.6 °F 32.0 °F 100% 30.15 in 2.0 mi WSW 15.0 mph - 0.00 in Snow Light Snow
12:10 PM 32.0 °F 21.2 °F 32.0 °F 100% 30.14 in 3.0 mi West 16.1 mph 23.0 mph 0.00 in Snow Light Snow
12:13 PM 32.0 °F 21.2 °F 32.0 °F 100% 30.15 in 2.5 mi West 16.1 mph 23.0 mph 0.00 in Snow Light Snow
12:15 PM 32.0 °F 19.5 °F 32.0 °F 100% 30.14 in 1.2 mi West 21.9 mph 26.5 mph 0.00 in Snow Light Snow
12:20 PM 32.0 °F 19.5 °F 30.9 °F 96% 30.15 in 0.5 mi West 21.9 mph 26.5 mph 0.00 in Fog , Snow Snow
12:27 PM 32.0 °F 19.2 °F 32.0 °F 100% 30.15 in 0.8 mi West 23.0 mph - 0.00 in Snow Light Snow
12:29 PM 32.0 °F 19.5 °F 30.9 °F 96% 30.15 in 1.0 mi West 21.9 mph - 0.00 in Snow Light Snow
12:42 PM 32.0 °F 19.8 °F 30.9 °F 96% 30.16 in 1.2 mi West 20.7 mph 27.6 mph 0.00 in Snow Light Snow
12:53 PM 32.0 °F 19.5 °F 30.9 °F 96% 30.17 in 1.8 mi West 21.9 mph 31.1 mph 0.00 in Snow Light Snow
1:18 PM 32.0 °F 19.8 °F 32.0 °F 100% 30.17 in 1.2 mi West 20.7 mph - 0.00 in Snow Light Snow
1:30 PM 32.0 °F 19.2 °F 32.0 °F 100% 30.17 in 1.5 mi West 23.0 mph - 0.00 in Snow Light Snow
1:35 PM 32.0 °F 19.5 °F 30.9 °F 96% 30.18 in 2.0 mi West 21.9 mph - 0.00 in Snow Light Snow
1:42 PM 32.0 °F 19.5 °F 32.0 °F 100% 30.18 in 4.0 mi West 21.9 mph 28.8 mph 0.00 in   Overcast
1:53 PM 32.0 °F 19.2 °F 32.0 °F 100% 30.18 in 4.0 mi West 23.0 mph - 0.00 in   Overcast
2:01 PM 32.0 °F 19.2 °F 30.9 °F 96% 30.18 in 3.0 mi West 23.0 mph - 0.00 in   Overcast
2:23 PM 32.0 °F 19.5 °F 32.0 °F 100% 30.19 in 2.5 mi West 21.9 mph - 0.00 in Snow Light Snow
2:31 PM 32.0 °F 19.5 °F 32.0 °F 100% 30.20 in 1.8 mi West 21.9 mph 28.8 mph 0.00 in Snow Light Snow
2:39 PM 32.0 °F 19.5 °F 32.0 °F 100% 30.20 in 2.0 mi West 21.9 mph - 0.00 in Snow Light Snow
2:53 PM 32.0 °F 19.2 °F 32.0 °F 100% 30.21 in 2.5 mi West 23.0 mph 31.1 mph 0.00 in   Overcast
3:07 PM 32.0 °F 19.8 °F 32.0 °F 100% 30.21 in 2.0 mi West 20.7 mph - 0.00 in Snow Light Snow
3:13 PM 32.0 °F 19.5 °F 32.0 °F 100% 30.22 in 3.0 mi West 21.9 mph - 0.00 in Snow Light Snow
3:22 PM 32.0 °F 19.5 °F 32.0 °F 100% 30.22 in 6.0 mi West 21.9 mph - 0.00 in   Overcast
3:41 PM 32.0 °F 19.8 °F 32.0 °F 100% 30.23 in 1.8 mi West 20.7 mph 28.8 mph 0.00 in Snow Light Snow
3:51 PM 33.8 °F 21.0 °F 32.0 °F 93% 30.23 in 3.0 mi West 25.3 mph 31.1 mph 0.00 in Snow Light Snow
3:53 PM 33.1 °F 20.6 °F 32.0 °F 96% 30.24 in 4.0 mi West 23.0 mph 31.1 mph 0.00 in Rain Light Rain
4:07 PM 33.1 °F 20.6 °F 32.0 °F 96% 30.24 in 10.0 mi West 23.0 mph 32.2 mph 0.00 in Rain Light Rain
4:53 PM 33.1 °F 21.2 °F 32.0 °F 96% 30.27 in 7.0 mi West 20.7 mph - 0.00 in Rain Light Rain
5:17 PM 33.1 °F 21.5 °F 32.0 °F 96% 30.28 in 2.0 mi West 19.6 mph - 0.00 in Snow Light Snow
5:27 PM 33.1 °F 21.5 °F 33.1 °F 100% 30.29 in 8.0 mi West 19.6 mph - 0.00 in Rain Light Rain
5:53 PM 33.1 °F 21.5 °F 33.1 °F 100% 30.31 in 7.0 mi West 19.6 mph - 0.00 in   Overcast
6:03 PM 33.1 °F 21.5 °F 32.0 °F 96% 30.31 in 10.0 mi West 19.6 mph - 0.00 in   Overcast
6:11 PM 32.0 °F 19.8 °F 32.0 °F 100% 30.31 in 6.0 mi West 20.7 mph - 0.00 in Rain Light Rain
6:40 PM 32.0 °F 19.8 °F 32.0 °F 100% 30.33 in 9.0 mi West 20.7 mph - 0.00 in   Overcast
6:53 PM 32.0 °F 20.8 °F 32.0 °F 100% 30.34 in 9.0 mi West 17.3 mph 27.6 mph 0.00 in   Overcast
7:22 PM 33.1 °F 22.2 °F 32.0 °F 96% 30.35 in 10.0 mi West 17.3 mph - N/A   Overcast
7:53 PM 32.0 °F 20.8 °F 30.9 °F 96% 30.37 in 10.0 mi West 17.3 mph - 0.00 in   Overcast
8:36 PM 32.0 °F 21.6 °F 32.0 °F 100% 30.39 in 9.0 mi West 15.0 mph - 0.00 in   Overcast
8:53 PM 32.0 °F 21.6 °F 30.9 °F 96% 30.40 in 7.0 mi West 15.0 mph - 0.00 in   Overcast
9:01 PM 32.0 °F 21.6 °F 32.0 °F 100% 30.40 in 4.0 mi West 15.0 mph - 0.00 in Snow Light Snow
9:31 PM 30.9 °F 20.7 °F 30.0 °F 96% 30.41 in 10.0 mi WNW 13.8 mph - 0.00 in   Overcast
9:53 PM 30.9 °F 21.2 °F 30.0 °F 96% 30.42 in 10.0 mi WNW 12.7 mph - 0.00 in   Overcast
10:17 PM 30.9 °F 22.8 °F 30.0 °F 96% 30.42 in 8.0 mi West 9.2 mph - 0.00 in   Overcast
10:34 PM 30.9 °F 23.5 °F 30.9 °F 100% 30.42 in 2.5 mi West 8.1 mph - 0.00 in Snow Light Snow
10:53 PM 30.0 °F 22.4 °F 30.0 °F 100% 30.43 in 2.5 mi West 8.1 mph - 0.00 in   Overcast
11:00 PM 30.9 °F 23.5 °F 30.9 °F 100% 30.43 in 3.0 mi West 8.1 mph - 0.00 in   Overcast
11:45 PM 30.0 °F 24.1 °F 28.9 °F 96% 30.43 in 10.0 mi SSW 5.8 mph - 0.00 in   Scattered Clouds
11:53 PM 28.9 °F 21.1 °F 28.0 °F 96% 30.44 in 10.0 mi SW 8.1 mph - 0.00 in   Partly Cloudy